DateTimeUTC,F1_A11,F1_S11,BsB_S11,BsG_S11,BsR_S11,BbsB_S11,BbsG_S11,BbsR_S11,BaB_A11,BaG_A11,BaR_A11,Tu_S11,T_S11,Uu_S11,U_S11,P_S11,T1_A11
2021-07-01T06:00:00Z,00000200,20000000,,,,,,,-000.34,-000.55,-000.59,18.6,25.4,02.9,01.9,0670.3,31.1
2021-07-01T06:01:00Z,00000200,20000000,,,,,,,0000.16,0000.21,0000.27,18.6,25.4,02.7,01.8,0670.3,31.1
2021-07-01T06:02:00Z,00000200,20000000,,,,,,,-000.35,-000.30,-000.24,18.6,25.4,02.6,01.7,0670.3,31.1
2021-07-01T06:03:00Z,00000200,60000000,,,,,,,-000.08,-000.40,-000.00,18.6,25.4,02.6,01.7,0670.3,31.1
2021-07-01T06:04:00Z,00000200,40000000,0000.57,0000.04,-000.14,0000.37,0000.02,0000.18,0000.00,0000.28,-000.38,18.7,25.3,02.6,01.8,0671.2,31.1
2021-07-01T06:05:00Z,00000200,00000000,0000.08,0000.20,-000.03,0000.63,0000.31,-000.09,0000.07,0000.04,0000.46,18.6,25.2,02.7,01.8,0671.3,31.1
2021-07-01T06:06:00Z,00000200,00000000,-000.34,0000.19,0000.24,0000.35,0000.06,-000.01,0000.03,0000.03,0000.02,18.6,25.1,02.7,01.8,0671.3,31.0
2021-07-01T06:07:00Z,00000200,00000000,-000.17,-000.02,0000.10,-000.30,0000.19,0000.15,-000.08,0000.02,-000.16,18.5,25.1,02.7,01.8,0671.3,31.0
2021-07-01T06:08:00Z,00000200,00000000,0000.22,0000.30,0000.23,0000.07,0000.11,0000.22,0000.14,0000.10,0000.01,18.5,25.0,02.8,01.9,0671.3,31.0
2021-07-01T06:09:00Z,00000200,00000000,-000.55,0000.21,-000.10,0000.25,0000.15,0000.29,-000.04,-000.24,0000.08,18.5,25.0,02.8,01.9,0671.3,31.1
2021-07-01T06:10:00Z,00000200,00000000,-000.07,0000.16,0000.31,0000.51,0000.19,0000.21,0000.14,0000.48,0000.18,18.6,25.0,02.8,01.9,0671.4,31.1
2021-07-01T06:11:00Z,00000200,00000000,0000.33,0000.22,0000.22,0000.56,0000.15,0000.25,0000.16,0000.18,-000.19,18.6,25.1,02.8,01.9,0671.4,31.1
2021-07-01T06:12:00Z,00000200,00000000,-000.10,0000.41,0000.29,0000.68,0000.09,0000.48,0000.14,-000.01,0000.15,18.7,25.1,02.8,01.9,0671.4,31.1
2021-07-01T06:13:00Z,00000200,00000000,-000.49,0000.05,0000.51,0000.08,0000.30,0000.24,-000.14,0000.17,0000.30,18.8,25.1,02.9,02.0,0671.4,31.2
2021-07-01T06:14:00Z,00000200,00000000,-000.03,0000.25,-000.03,-000.10,0000.28,0000.16,0000.05,-000.07,-000.06,18.8,25.2,02.8,01.9,0671.5,31.1
2021-07-01T06:15:00Z,00000200,00000000,0000.54,0000.34,0000.43,0000.17,-000.00,0000.27,0000.12,0000.03,-000.11,18.9,25.2,02.9,02.0,0671.5,31.2
2021-07-01T06:16:00Z,00000200,00000000,-000.37,0000.31,0000.15,-000.06,0000.26,0000.23,0000.11,-000.16,0000.30,19.0,25.2,02.8,01.9,0671.5,31.2
2021-07-01T06:17:00Z,00000200,00000000,0000.36,0000.28,0000.28,0000.10,0000.19,0000.12,-000.39,0000.19,-000.25,19.0,25.2,02.9,01.9,0671.5,31.1
2021-07-01T06:18:00Z,00000200,00000000,0000.53,0000.26,0000.26,0000.33,0000.01,0000.31,-000.04,-000.31,-000.22,18.9,25.3,02.8,01.9,0671.5,31.1
2021-07-01T06:19:00Z,00000200,00000000,0000.45,0000.26,0000.09,0000.46,0000.06,0000.04,0000.27,0000.15,0000.18,18.8,25.2,02.8,01.9,0671.5,31.1
2021-07-01T06:20:00Z,00000200,00000000,-000.04,0000.08,0000.11,0000.30,0000.20,0000.26,0000.09,-000.16,-000.01,18.8,25.2,02.8,01.9,0671.5,31.1
2021-07-01T06:21:00Z,00000200,00000000,-000.65,0000.15,-000.16,0000.31,0000.12,-000.09,0000.09,0000.29,0000.22,18.7,25.1,02.9,01.9,0671.5,31.1
2021-07-01T06:22:00Z,00000200,00000000,-000.16,-000.12,0000.36,0000.32,0000.09,0000.16,-000.03,-000.25,0000.03,18.7,25.1,02.8,01.9,0671.5,31.1
2021-07-01T06:23:00Z,00000200,00000000,0000.09,0000.44,-000.09,-000.22,0000.10,0000.29,0000.31,-000.09,0000.12,18.6,25.1,02.8,01.9,0671.5,31.0
2021-07-01T06:24:00Z,00000200,00000000,0000.01,0000.19,0000.14,0000.23,0000.05,0000.18,-000.13,0000.45,-000.29,18.6,25.1,02.9,02.0,0671.6,31.0
2021-07-01T06:25:00Z,00000200,00000000,0000.95,0000.17,0000.32,-000.07,0000.20,0000.60,0000.10,-000.03,-000.02,18.7,25.1,02.8,01.9,0671.6,31.1
2021-07-01T06:26:00Z,00000200,00000000,0000.08,0000.38,0000.19,-000.03,-000.04,0000.41,0000.04,-000.01,0000.12,18.8,25.1,02.9,02.0,0671.6,31.1
2021-07-01T06:27:00Z,00000200,00000000,-000.18,0000.25,0000.04,-000.01,0000.10,0000.18,-000.11,0000.58,0000.28,18.8,25.1,02.8,01.9,0671.6,31.1
2021-07-01T06:28:00Z,00000200,00000000,-000.18,0000.14,0000.22,-000.11,0000.27,0000.28,-000.04,-000.42,-000.37,18.9,25.2,02.9,02.0,0671.6,31.1
2021-07-01T06:29:00Z,00000200,00000000,0000.23,0000.24,0000.09,0000.92,-000.11,0000.46,0000.07,-000.18,0000.31,18.9,25.2,02.8,01.9,0671.6,31.1
2021-07-01T06:30:00Z,00000200,00000000,0000.39,0000.15,-000.29,0000.38,0000.23,0000.07,0000.16,0000.38,0000.27,18.9,25.2,02.9,02.0,0671.6,31.1
2021-07-01T06:31:00Z,00000200,00000000,-000.02,0000.32,0000.21,0000.23,0000.04,0000.36,-000.07,-000.27,-000.26,18.8,25.2,03.0,02.0,0671.6,31.1
2021-07-01T06:32:00Z,00000200,00000000,0000.13,0000.25,0000.07,0000.20,0000.11,0000.24,0000.19,0000.15,0000.21,18.8,25.2,03.0,02.0,0671.6,31.1
2021-07-01T06:33:00Z,00000200,00000000,0000.22,0000.39,0000.37,0000.04,0000.05,0000.17,-000.26,0000.02,-000.07,18.7,25.1,03.0,02.0,0671.6,31.1
2021-07-01T06:34:00Z,00000200,00000000,-000.28,0000.31,0000.26,0000.13,0000.13,0000.26,0000.04,-000.12,-000.01,18.7,25.1,03.0,02.0,0671.5,31.1
2021-07-01T06:35:00Z,00000200,00000000,0000.11,0000.32,0000.16,0000.34,0000.20,0000.40,0000.12,0000.28,-000.16,18.6,25.0,03.1,02.1,0671.6,31.1
2021-07-01T06:36:00Z,00000200,00000000,0000.29,0000.05,0000.24,0000.46,0000.13,0000.18,0000.20,0000.12,-000.01,18.5,25.0,03.1,02.1,0671.6,31.0
2021-07-01T06:37:00Z,00000200,00000000,-000.31,0000.47,0000.10,0000.46,0000.10,-000.00,0000.07,0000.06,0000.13,18.5,24.9,03.1,02.1,0671.6,31.0
2021-07-01T06:38:00Z,00000200,00000000,-000.23,0000.24,0000.08,-000.10,0000.16,0000.11,0000.18,-000.22,0000.05,18.4,24.9,03.1,02.1,0671.6,31.0
2021-07-01T06:39:00Z,00000200,00000000,0000.53,0000.34,0000.12,0000.25,0000.06,0000.26,0000.03,0000.02,0000.26,18.5,24.9,03.1,02.1,0671.5,31.1
2021-07-01T06:40:00Z,00000200,00000000,0000.24,0000.14,0000.04,-000.10,0000.17,0000.01,0000.24,0000.16,-000.14,18.5,24.9,03.2,02.2,0671.5,31.1
2021-07-01T06:41:00Z,00000200,00000000,0000.52,0000.05,0000.18,0000.34,0000.12,0000.45,-000.16,0000.24,0000.21,18.6,25.0,03.2,02.1,0671.6,31.1
2021-07-01T06:42:00Z,00000200,00000000,0000.12,0000.25,0000.51,0000.37,0000.14,0000.25,0000.43,0000.45,0000.16,18.7,25.0,03.2,02.2,0671.6,31.1
2021-07-01T06:43:00Z,00000200,00000000,0000.09,0000.11,0000.14,-000.05,0000.24,0000.39,-000.40,-000.44,-000.02,18.7,25.0,03.1,02.1,0671.6,31.1
2021-07-01T06:44:00Z,00000200,00000000,0000.71,0000.06,0000.16,0000.39,0000.15,0000.47,0000.13,-000.01,-000.03,18.8,25.1,03.1,02.1,0671.7,31.1
2021-07-01T06:45:00Z,00000200,00000000,0000.40,0000.29,0000.34,-000.13,0000.01,0000.54,-000.12,-000.08,0000.12,18.8,25.1,03.1,02.1,0671.6,31.1
2021-07-01T06:46:00Z,00000200,00000000,0000.82,0000.60,-000.09,0000.06,0000.20,0000.46,-000.03,-000.00,-000.34,18.7,25.1,03.1,02.1,0671.7,31.1
2021-07-01T06:47:00Z,00000200,00000000,-000.42,0000.66,0000.03,0000.60,-000.03,0000.09,-000.05,0000.09,-000.05,18.7,25.0,03.2,02.1,0671.7,31.1
2021-07-01T06:48:00Z,00000200,00000000,0000.23,0000.15,0000.03,0000.08,-000.00,0000.22,0000.09,-000.26,0000.29,18.6,25.0,03.1,02.1,0671.7,31.1
2021-07-01T06:49:00Z,00000200,00000000,0000.21,0000.23,0000.37,0000.71,0000.04,0000.21,-000.12,0000.11,0000.14,18.5,24.9,03.2,02.2,0671.7,31.0
2021-07-01T06:50:00Z,00000200,00000000,0000.11,0000.37,0000.16,0000.56,0000.17,0000.20,0000.18,0000.01,-000.25,18.4,24.9,03.1,02.1,0671.7,31.0
2021-07-01T06:51:00Z,00000200,00000000,0000.63,0000.12,0000.27,-000.18,0000.08,0000.36,0000.02,0000.01,-000.16,18.4,24.9,03.1,02.1,0671.7,31.0
2021-07-01T06:52:00Z,00000200,00000000,-000.00,0000.18,0000.36,0000.30,0000.04,0000.36,-000.20,-000.03,0000.09,18.3,24.8,03.2,02.2,0671.7,31.0
2021-07-01T06:53:00Z,00000200,00000000,0000.65,0000.53,0000.24,0000.81,0000.33,0000.11,0000.39,-000.03,-000.00,18.3,24.8,03.0,02.0,0671.7,31.0
2021-07-01T06:54:00Z,00000200,00000000,-000.49,-000.03,0000.33,0000.25,-000.16,0000.17,0000.01,-000.09,0000.32,18.3,24.8,03.1,02.1,0671.7,31.0
2021-07-01T06:55:00Z,00000200,00000000,0000.25,0000.32,0000.21,0000.56,0000.10,0000.18,0000.12,0000.75,0000.18,18.4,24.8,03.1,02.1,0671.7,31.0
2021-07-01T06:56:00Z,00000200,00000000,0000.19,0000.19,0000.01,0000.47,0000.23,0000.27,-000.09,-000.21,-000.04,18.4,24.8,03.0,02.1,0671.7,31.1
2021-07-01T06:57:00Z,00000200,40000000,,,,,,,-000.08,-000.17,-000.11,18.6,24.9,03.2,02.2,0671.7,31.1
2021-07-01T06:58:00Z,00000200,60000000,,,,,,,-000.21,0000.16,0000.41,18.4,25.0,02.9,01.9,0670.8,31.1
2021-07-01T06:59:00Z,00000200,20000000,,,,,,,0000.53,0000.29,-000.29,18.4,25.2,02.9,01.9,0670.8,31.1
